SCP
0 0 0 0 0 0 0 0 0 0 0 0 0 0 0 0 0 0 0 0 0 0 0 0 0 0 0 0 0 0 0 0 0 0 0 0 0 0 0 0 0 0 0
0 0 0 0 0 0 0 0 0 0 0 0 0 0 0 0 0 0 0 0 0 0 0 0 0 0 0 0 0 0 0 0 0 0 0 0 0 0 0 0 0 0 0
0 0 0 0 0 0 0 0 0 0 0 0 0 0 0 0 0 0 0 0 0 0 0 0 0 0 0 0 0 0 0 0 0 0 0 0 0 0 0 0 0 0 0
0 0 0 0 0 0 0 0 0 0 0 0 0 0 0 0 0 0 0 0 0 0 0 0 0 0 0 0 0 0 0 0 0 0 0 0 0 0 0 0 0 0 0
0 0 0 0 0 0 0 0 0 0 0 0 0 0 0 0 0 0 0 0 0 0 0 0 0 0 0 0 0 0 0 0 0 0 0 0 0 0 0 0 0 0 0
0 0 0 0 0 0 0 0 0 0 0 0 0 0 0 0 0 0 0 0 0 0 0 0 0 0 0 0 0 0 0 0 0 0 0 0 0 0 0 0 0 0 0
0 0 0 0 0 0 0 0 0 0 0 0 0 0 0 0 0 0 0 0 0 0 0 0 0 0 0 0 0 0 0 0 0 0 0 0 0 0 0 0 0 0 0
0 0 0 0 0 0 0 0 0 0 0 0 0 0 0 0 -0 -0 0 0 0 0 0 0 0 0 0 0 0 0 0 0 0 0 0 0 0 0 0 0 0 0 0
0 0 0 0 0 0 0 0 0 0 0 0 0 0 0 -0 -0 -0 0 0 0 0 0 0 0 0 0 0 0 0 0 0 0 0 0 0 0 0 0 0 0 0 0
0 0 0 0 0 0 0 0 0 0 0 0 0 0 -0 -0 -0 0 0 0 0 0 0 0 0 0 0 0 0 0 0 0 0 0 0 0 0 0 0 0 0 0 0
0 0 0 0 0 0 0 0 0 0 0 0 0 -0 -0 -0 0 0 0 0 0 0 0 0 0 0 0 0 0 0 0 0 0 0 0 0 0 0 0 0 0 0 0
0 0 0 0 0 0 0 0 0 0 0 0 -0 -0 -0 0 0 0 0 0 0 0 0 0 0 0 0 0 0 0 0 0 0 0 0 0 0 0 0 0 0 0 0
0 0 0 0 0 0 0 0 0 0 0 0 0 -0 -0 0 0 0 0 0 0 0 0 0 0 0 0 0 0 0 0 0 0 0 0 0 0 0 0 0 0 0 0
0 0 0 0 0 0 0 0 0 0 0 0 0 0 0 0 0 0 0 0 0 0 0 0 0 0 0 0 0 0 0 0 0 0 0 0 0 0 0 0 0 0 0
0 0 0 0 0 0 0 0 0 0 0 0 0 0 0 0 0 0 0 0 0 0 0 0 0 0 0 0 0 0 0 0 0 0 0 0 0 0 0 0 0 0 0
0 0 0 0 0 0 0 0 0 0 0 0 0 0 0 0 0 0 0 0 0 0 0 0 0 0 0 0 0 0 0 0 0 0 0 0 0 0 0 0 0 0 0
0 0 0 0 0 0 0 0 0 0 0 0 0 0 0 0 0 0 0 0 0 0 0 0 0 0 0 0 0 0 0 0 0 0 0 0 0 0 0 0 0 0 0
0 0 0 0 0 0 0 0 0 0 0 0 0 0 0 0 0 0 0 0 0 0 0 0 0 0 0 0 0 0 0 0 0 0 0 0 0 0 0 0 0 0 0
0 0 0 0 0 0 0 0 0 0 0 0 0 0 0 0 0 0 0 0 0 0 0 0 0 0 0 0 0 0 0 0 0 0 0 0 0 0 0 0 0 0 0
0 0 0 0 0 0 0 0 0 0 0 0 0 0 0 0 0 0 0 0 0 0 0 0 0 0 0 0 0 0 0 0 0 0 0 0 0 0 0 0 0 0 0
0 0 0 0 0 0 0 0 0 0 0 0 0 0 0 0 0 0 0 0 0 0 0 0 0 0 0 0 0 0 0 0 0 0 0 0 0 0 0 0 0 0 0
0 0 0 0 0 0 0 0 0 0 0 0 0 0 0 0 0 0 0 0 0 0 0 0 0 0 0 0 0 0 0 0 0 0 0 0 0 0 0 0 0 0 0
0 0 0 0 0 0 0 0 0 0 0 0 0 0 0 0 0 0 0 0 0 0 0 0 0 0 0 0 0 0 0 0 0 0 0 0 0 0 0 0 0 0 0
0 0 0 0 0 0 0 0 0 0 0 0 0 0 0 0 0 0 0 0 0 0 0 0 0 0 0 0 0 0 0 0 0 0 0 0 0 0 0 0 0 0 0
0 0 0 0 0 0 0 0 0 0 0 0 0 0 0 0 0 0 0 0 0 0 0 0 0 0 0 0 0 0 0 0 0 0 0 0 0 0 0 0 0 0 0
0 0 0 0 0 0 0 0 0 0 0 0 0 0 0 0 0 0 0 0 0 0 0 0 0 0 0 0 0 0 0 0 0 0 0 0 0 0 0 0 0 0 0
Wind_Speed
3 3 3 3 3 3 2 2 1 1 1 0 1 1 1 1 1 1 2 2 2 3 2 2 3 3 2 2 2 2 3 3 5 4 3 3 4 4 4 3 3 4 4
3 3 3 2 2 3 2 1 1 1 1 1 1 1 1 1 1 1 2 2 2 3 3 3 4 3 3 3 2 3 3 4 4 5 4 3 4 4 4 4 4 3 4
3 3 3 2 2 2 2 1 1 1 0 0 0 1 1 2 2 2 2 2 3 3 3 3 4 3 4 3 3 3 3 3 3 4 4 3 3 3 3 3 4 3 4
3 3 3 2 2 2 1 1 1 1 1 1 1 1 2 2 2 2 2 2 3 3 3 4 4 4 5 5 4 4 3 3 3 3 4 3 3 3 2 3 3 3 3
3 3 2 2 1 1 1 1 1 1 1 1 1 2 2 2 2 2 2 3 3 4 4 4 5 5 6 5 4 4 3 3 3 3 3 3 3 3 3 2 3 3 3
4 3 2 2 1 1 1 0 0 0 1 1 2 2 2 2 3 4 3 3 3 3 4 5 5 5 6 6 6 6 5 4 4 3 3 4 5 4 3 2 2 2 3
3 3 2 2 2 1 1 1 0 1 1 2 2 2 3 4 5 5 4 3 3 3 4 4 4 5 5 4 5 5 5 6 7 5 5 6 5 4 3 4 4 4 4
3 2 3 3 2 1 1 1 1 1 1 2 3 3 3 5 6 5 5 3 3 4 4 4 4 5 5 4 4 4 5 5 5 5 6 7 6 5 5 5 4 4 5
3 2 2 3 3 2 2 2 1 1 2 2 2 3 4 5 6 5 4 2 3 4 4 4 4 4 6 5 3 4 6 6 5 6 7 8 8 8 6 3 3 3 4
3 3 2 3 3 3 3 2 1 1 2 2 3 3 3 4 5 5 3 1 3 4 4 4 5 5 6 5 3 4 5 6 5 6 5 5 5 6 7 6 5 4 3
3 2 2 2 3 3 2 1 1 1 2 2 3 4 4 4 5 5 4 1 2 3 4 4 5 7 7 6 5 4 7 6 5 5 5 5 4 3 3 4 5 5 5
2 2 2 2 2 2 1 1 1 1 1 2 3 4 4 3 3 4 4 3 3 3 4 4 5 8 8 8 5 6 7 5 3 3 4 4 4 5 4 4 5 6 7
2 2 2 1 1 1 1 1 1 1 1 2 2 3 4 4 3 4 5 5 4 3 4 7 8 9 8 6 6 7 5 2 2 3 4 5 4 5 5 4 4 4 7
3 2 1 1 1 0 0 1 1 1 2 2 2 3 4 4 3 3 3 3 4 3 4 5 7 7 5 5 5 4 3 3 3 4 5 5 4 4 4 3 3 3 3
2 2 1 1 1 1 1 1 2 3 4 3 3 3 3 5 5 5 3 4 3 3 4 3 3 4 4 4 4 4 3 3 3 3 4 5 5 4 4 3 3 3 3
2 1 1 1 1 1 1 3 3 4 5 6 7 6 5 7 8 8 7 7 6 4 2 2 4 4 4 4 5 5 4 4 4 4 4 4 4 5 5 4 3 3 4
2 2 1 1 1 1 1 1 3 5 4 3 4 5 5 6 6 6 7 6 5 2 1 3 3 4 4 4 4 4 5 5 5 4 5 4 4 4 4 4 4 4 4
2 2 2 1 1 1 1 1 2 2 4 5 5 5 5 5 5 5 4 3 3 2 2 3 4 4 4 4 5 5 5 5 5 4 5 5 4 4 4 5 4 5 5
2 1 1 1 1 1 1 1 1 2 2 3 4 5 6 4 4 4 2 1 2 3 4 4 4 4 4 4 5 5 5 5 6 5 5 5 4 4 5 5 5 6 5
1 1 1 1 0 0 1 1 2 2 3 3 3 4 4 4 4 4 3 2 2 3 4 4 4 4 4 4 5 5 5 5 6 5 5 5 5 4 5 6 6 6 5
1 1 1 1 0 0 1 1 2 2 2 3 3 3 3 2 3 3 3 3 3 4 4 5 4 4 4 4 5 5 6 5 5 5 6 5 5 5 5 5 6 6 6
2 1 1 1 0 1 1 1 1 2 2 3 3 3 4 2 2 3 3 3 4 4 4 4 4 4 4 5 5 5 5 6 6 6 6 6 6 6 6 6 6 5 5
2 2 1 1 1 1 1 1 1 2 2 2 2 3 3 2 3 3 4 4 4 4 4 4 4 4 5 4 4 4 5 6 6 6 6 6 6 5 6 6 7 7 6
2 2 1 0 1 1 1 2 2 2 2 2 2 2 2 2 3 3 4 4 4 4 4 4 4 6 8 6 4 4 4 6 6 5 6 6 6 6 5 6 6 6 6
2 2 1 0 0 0 1 2 2 2 2 2 2 2 2 2 3 3 4 4 5 5 6 5 5 5 7 8 7 7 6 6 6 5 5 4 5 6 6 6 5 6 6
2 1 1 0 0 0 1 1 2 2 2 2 2 2 2 3 3 4 4 4 4 5 5 5 7 7 8 7 8 8 7 7 7 7 5 4 4 5 6 5 6 5 6
Wind_Direction
150 157 154 153 144 137 146 161 171 168 178 214 257 287 300 307 309 297 281 276 269 277 268 254 262 257 257 256 243 241 236 231 260 280 275 281 276 275 282 276 269 265 268
158 146 152 154 147 151 158 173 155 182 207 215 232 260 280 292 294 282 289 293 280 279 280 276 276 272 265 263 256 258 251 233 243 273 286 280 272 270 271 272 273 267 266
141 142 142 150 153 161 166 169 166 169 188 239 232 258 277 284 286 283 278 291 289 280 275 271 276 275 278 276 267 264 261 252 237 253 275 275 278 273 275 276 272 271 272
142 149 156 172 175 173 172 173 177 178 186 233 258 262 269 277 281 288 292 296 297 295 289 279 275 268 267 271 272 269 265 264 253 253 268 279 279 279 262 276 288 287 284
139 146 168 168 151 146 158 165 174 204 230 234 253 278 288 291 287 295 295 297 301 305 306 297 285 280 270 264 266 269 267 264 263 259 268 279 283 280 269 261 272 289 285
142 153 156 143 144 154 168 160 158 298 300 281 272 280 296 296 302 299 292 290 291 295 302 306 303 296 296 290 278 267 252 250 257 258 264 267 271 268 263 258 263 278 283
156 162 155 156 168 193 179 140 235 284 300 295 290 292 293 293 293 293 294 281 276 282 289 300 309 309 309 298 293 288 272 255 239 237 253 261 263 260 255 258 251 250 257
168 178 171 159 180 193 171 227 261 274 270 273 283 289 291 292 291 288 295 294 288 287 283 281 289 301 303 299 299 300 294 283 260 242 245 256 259 255 243 247 255 265 269
179 195 198 174 183 199 211 242 265 271 283 283 285 287 288 295 296 295 299 299 296 297 292 284 278 287 297 297 296 296 300 299 282 256 253 260 261 255 242 232 235 238 266
201 208 210 186 189 210 224 245 260 257 272 291 297 291 283 290 298 298 295 271 292 303 311 307 289 285 295 296 282 279 287 291 302 307 297 285 269 258 237 219 220 229 251
200 197 204 200 198 208 219 249 260 277 299 309 309 309 301 289 291 293 291 257 268 295 304 307 303 304 301 297 283 264 263 274 290 290 294 296 291 275 252 230 219 219 232
177 187 200 203 202 187 179 239 257 257 302 315 319 318 312 303 290 292 294 282 264 264 279 289 293 300 301 299 292 277 275 278 277 285 290 292 292 288 279 262 242 236 238
158 179 189 185 181 173 184 231 272 267 281 298 304 307 308 312 308 302 298 296 288 267 275 284 292 297 303 302 295 294 292 280 278 283 285 285 281 281 285 286 274 254 253
157 173 174 169 193 192 194 231 246 259 266 282 289 292 301 311 312 318 315 315 315 305 302 307 308 304 301 294 304 306 295 277 269 275 282 283 286 285 282 280 274 274 279
154 163 169 174 197 258 284 258 253 253 234 245 262 263 279 293 291 294 300 306 309 309 319 324 332 332 331 327 323 315 309 306 295 290 287 292 295 293 289 287 278 271 265
161 178 191 202 223 244 295 319 302 267 275 259 249 252 264 261 277 293 300 300 302 308 322 318 317 314 311 311 312 313 312 311 305 300 295 292 295 297 298 295 279 270 274
174 195 205 212 229 255 268 297 317 329 334 313 287 277 271 281 289 297 303 308 310 314 309 302 302 303 303 303 303 303 305 307 306 302 298 295 293 294 295 296 295 289 284
179 199 202 210 218 237 252 268 281 309 324 326 328 321 318 312 313 316 321 345 345 351 310 301 301 302 302 303 303 302 303 308 310 307 302 299 296 294 295 295 295 294 291
178 196 198 203 214 237 263 293 308 308 304 309 324 336 348 351 358 3 14 25 333 323 315 306 301 299 301 303 304 305 306 306 309 311 310 307 305 302 299 297 295 294 291
172 192 162 148 89 349 338 335 329 325 321 324 330 333 344 359 0 355 360 349 328 315 312 309 308 308 310 310 312 313 314 314 316 316 315 314 314 312 306 304 302 300 297
150 126 96 96 82 324 319 318 317 319 322 327 329 334 344 352 343 340 340 337 326 318 317 317 317 317 318 319 319 321 322 320 320 319 316 317 318 317 314 312 309 305 305
133 119 102 93 23 0 335 325 327 327 329 333 335 349 0 0 348 341 335 332 328 324 321 316 316 321 320 319 321 321 320 320 321 320 317 318 319 317 317 316 315 314 310
126 115 95 66 33 17 11 6 357 343 338 339 339 346 355 355 348 342 335 334 334 335 335 332 326 327 328 326 325 321 318 317 315 313 313 313 314 316 317 316 316 316 316
131 130 126 96 32 23 6 352 350 345 347 350 352 349 349 348 344 340 335 332 334 335 339 339 334 331 332 335 333 331 331 324 319 313 313 310 311 313 315 316 315 315 313
132 134 140 145 94 1 349 344 342 340 345 349 348 347 346 346 342 337 336 337 336 335 337 337 336 336 336 338 340 339 335 332 330 324 317 313 312 314 318 319 320 321 322
141 142 146 159 198 297 316 323 324 330 335 337 341 343 343 341 337 334 335 338 337 335 335 337 341 343 343 343 342 338 334 334 335 330 323 319 320 323 326 323 324 323 326